Regional Weather Roundup
Issued by NWS Charleston, SC

Current Version | Previous Version | Text Only | Print | Product List | Glossary Off
Versions: 1 2 3 4 5 6 7 8 9 10 11 12 13 14 15 16 17 18 19 20 21 22 23 24 25 26 27 28 29 30 31 32 33 34 35 36 37 38 39 40 41 42 43 44 45 46 47 48 49 50

000
ASUS42 KCHS 020212
RWRCHS

REGIONAL WEATHER ROUNDUP
NATIONAL WEATHER SERVICE CHARLESTON SC
1000 PM EDT SAT AUG 01 2015

NOTE: "FAIR" INDICATES FEW OR NO CLOUDS BELOW 12,000 FEET WITH NO
SIGNIFICANT WEATHER AND/OR OBSTRUCTIONS TO VISIBILITY.

NOT ALL STATIONS ARE QUALITY CONTROLLED BY THE NATIONAL
WEATHER SERVICE. USE DATA WITH CAUTION...ESPECIALLY
DEWPOINT OBSERVATIONS.

SCZ027-030-031-034>040-042>050-020300-
...SOUTHEAST SOUTH CAROLINA...

CITY           SKY/WX    TMP DP  RH WIND       PRES   REMARKS
N CHARLESTON   PTCLDY    77  73  87 S3        29.92R
WATERFRONT PRK   N/A     80  76  87 VRB2      29.89R
MOUNT PLEASANT FAIR      75  75 100 CALM      29.92R
JOHNS ISLAND   FAIR      77  75  94 CALM      29.92R
PINOPOLIS      NOT AVBL
MONCKS CORNER  FAIR      79  73  83 CALM      29.92R
SUMMERVILLE    FAIR      77  75  94 CALM      29.93R
BEAUFORT MCAS  CLEAR     81  77  88 S3        29.91R
BEAUFORT ARPT  FAIR      77  77 100 CALM      29.91R
HILTON HEAD IS PTCLDY    81  77  89 S5        29.92R
WALTERBORO     CLEAR     79  75  89 CALM      29.93R
ALLENDALE      FAIR      77  73  88 CALM      29.92R

...SOUTHERN MIDLANDS AND PEE DEE...

CITY           SKY/WX    TMP DP  RH WIND       PRES   REMARKS
GEORGETOWN     NOT AVBL
KINGSTREE      NOT AVBL
ORANGEBURG     CLEAR     77  72  84 S5        29.93R
BARNWELL       FAIR      79  73  83 S3        29.94R
AIKEN          MOCLDY    79  68  69 S3        29.96R
MANNING        RAIN      81  72  74 S7        29.91R
COLUMBIA       PTCLDY    86  70  58 S10       29.91R HX  90
SUMTER         CLEAR     82  73  72 SW8       29.90R
FLORENCE       LGT RAIN  81  75  82 SE16      29.91R
MYRTLE BEACH   CLEAR     81  72  74 SW6       29.93R
N MYRTLE BEACH CLEAR     81  75  82 SW9       29.92R

$$

GAZ063-065-086>088-099>101-113>116-118-119-134>141-150-020300-
...SOUTHEAST GEORGIA...

CITY           SKY/WX    TMP DP  RH WIND       PRES   REMARKS
SAVANNAH ARPT  PTCLDY    79  75  87 E5        29.91R
HUNTER AAF     MOCLDY    80  78  91 SE8       29.88R
FORT STEWART   NOT AVBL
STATESBORO     PTCLDY    76  76 100 CALM      29.92R
SYLVANIA       PTCLDY    77  76  98 CALM      29.93R
CLAXTON        NOT AVBL

...CSRA...CENTRAL AND FAR SOUTHEAST GEORGIA...

CITY           SKY/WX    TMP DP  RH WIND       PRES   REMARKS
THOMSON        CLEAR     83  74  73 CALM      29.97R HX  90
AUGUSTA-BUSH   CLEAR     77  74  90 SE6       29.91R
AUGUSTA-DANIEL PTCLDY    82  71  69 S5        29.93R
SWAINSBORO     FAIR      79  73  83 CALM      29.93R
VIDALIA        PTCLDY    73  73 100 NE5       29.92R
EASTMAN        FAIR      77  77 100 CALM      29.93R
HAZLEHURST     FAIR      76  76 100 CALM      29.89R
ALMA           CLOUDY    76  73  91 S3        29.89R
WAYCROSS       CLOUDY    81  79  93 S3        29.89R HX  91
JESUP          FAIR      82  77  83 CALM      29.90R HX  91
BAXLEY         FAIR      77  73  88 CALM      29.90R
BRUNSWICK      CLOUDY    81  73  78 SW6       29.91R
SAINT SIMONS   CLOUDY    80  74  81 SW7       29.90R

$$

SCZ027-028-034-036>038-045-046-048>050-GAZ119-141-020300-
...LAKE AND SUPPLEMENTAL COASTAL OBSERVATIONS...

STATION/POSITION TIME  TEMP    WIND        PRES    WAVE   SWELL
                       AIR SEA DIR/SP/G            HT/PER HT/PER/DIR
                 (UTC) (F)     (DEG/KT/KT) (MB)    (FT/S) (FT/S/D)
UPR LAKE MARION  NOT AVBL
WINYAH BAY       0045   81     210/  5     1012.0
LAKE MURRAY      0100   87        CALM     1011.2R
ACE BASIN NERRS  NOT AVBL
FORT PULASKI     0100   81 86  140/  4/  6 1012.7R
SAPELO ISLAND    0100   82     170/  8     1012.0S

$$

ANZ835-935-AMZ111-154-330-350-352-354-370-450-454-472-020300-
...C-MAN AND BUOY OBSERVATIONS...

STATION/POSITION TIME  TEMP    WIND        PRES    WAVE   SWELL
                       AIR SEA DIR/SP/G            HT/PER HT/PER/DIR
                 (UTC) (F)     (DEG/KT/KT) (MB)    (FT/S) (FT/S/D)
BUOY 41004       0150   80 84  190/  6/  6 1012.9R   4/ 7   3/ 7
BUOY 41008       0150   81 83  190/ 14/ 16 1012.7R   3/ 5   2/120/ 8
FOLLY BEACH CMAN 0100   80     190/  4/  5 1012.7R
CAPERS NEARSHORE 0108   80     200/  6/  8 1012.6R
FRIPP NEARSHORE  0100   81     170/  8/ 10 1012.2R


STATION/POSITION TIME  TEMP    WIND        PRES    WAVE   SWELL
                       AIR SEA DIR/SP/G            HT/PER HT/PER/DIR
                 (UTC) (F)     (DEG/KT/KT) (MB)    (FT/S) (FT/S/D)
5E ST. MARYS GA  0121      83                N/A     3/ 5
FRYING PAN BUOY  0150   82 83  200/ 12/ 14 1013.7R   4/ 7   3/160/ 7
BUOY 41025       0150   83 85  230/ 12/ 14 1012.9R   3/ 8   2/170/ 8
CAPE LOOKOUT NC  0100   80     240/  6/  8 1012.3R
BUOY 41002       0150   83 81  220/ 14/ 16 1015.9R   6/ 7   5/260/ 7
BUOY 41010       0120   78 83  210/ 14/ 17 1016.5F
ST AUGUSTINE FL  0200   75 81  200/  6/  7 1014.6R


$$



USA.gov is the U.S. government's official web portal to all federal, state and local government web resources and services.